Details for Norwegian Air International at GCLP




Go Back


Latest METAR
Local Time

GCLP 180600Z 35017KT 9999 BKN033 22/17 Q1015 NOSIG
18/08/2018, 07:29:12

Description
Results
Norwegian Air International Logo
Number of Pilots based at GCLP
0 Pilots Based here
Number of Norwegian Air International Flights Departed from GCLP
0 Flights Departed
Number of Norwegian Air International Flights Arrived at GCLP
1 Flights Arrived
Number of Norwegian Air International Schedules Departing from GCLP
27 Schedules
Number of Norwegian Air International Schedules Arriving at GCLP
28 Schedules
Number of Norwegian Air International Schedules Departing from GCLP availible today
8 Schedules Today
Number of Norwegian Air International Schedules Arriving at GCLP availible today
8 Schedules Today
Average Landing Rate at GCLP
-179 fpm
Norwegian Air International Average Landing Rate at GCLP
-210 fpm
Total Fuel Purchased at GCLP by Norwegian Air International
0.00 kgs / 0.00 lbs

Pilots Based at GCLP


Pilot ID
Pilot Name
Pilot Rank
No. of Flights
No. of Flying Hours
There are no pilots assigned to this hub!   Will you be the first?
Content